THORAD DELTA 1 DEB, 42597

Orbit data source: Space-Track

THORAD DELTA 1 DEB, 42597 is space debris in SSO originally from a launch on Fri, 15 Nov 1974 UTC launched from the Air Force Western Test Range (AFWTR). Debris objects in space refer to the collection of defunct objects orbiting the Earth. Examples of debris include non-operational satellites, rocket bodies, and fragments generated from explosions, collisions, or faulty payload assembly.

Loading next visibility...
THORAD DELTA 1 DEB details
Identifier
42597, 1974-089FN
Orbit
SSO
Last TLE update14 hours ago
Origin
Flag of USGSFC (US)
ManufacturerUnknown
MissionSpacecraft
Bus & MotorUnknown
MassUnknown
Launch date (UTC)
1974-11-15 (50 years ago)
Launch vehicleUnknown
Launch site
Air Force Western Test Range (AFWTR)
Object type
Payload
Rocket body
Debris
Shape & HBRUnknown
Radar Cross SectionSmall (<0.1 m²)

Expand to show TLE details & history

TLE from 14 hours ago
0 THORAD DELTA 1 DEB
1 42597U 74089FN  24361.21687089  .00000534  00000-0  27282-2 0  9997
2 42597 101.4956 338.1637 0193708  52.1686 309.6755 12.69310696514123
Epoch: 2024-12-26T05:12Z
Definitive object data (Epoch: 2024-12-26T05:12:17.644Z)
Latitude-0.00005°
Longitude164.89075°
Altitude1,293.097 km
Speed7.253 km/s
True Right ascension22h 32m 39s
True Declination0° 00' 00"
Sunlit
Object was in daylight at TLE epoch
Visualization TLE readout
Latitude-4.76418°
Longitude-15.48558°
Altitude1,490.558 km
Speed7.071 km/s
Apparent Right ascension09h 06m 57s
Apparent Declination-22° 37' 34"
Sunlit
Object is in daylight
Visualization observer readout
Local Sidereal Time18:46:34
Azimuth289.655° WNW
Elevation-55.701°
Doppler factor1
Orbital elements
Apogee altitude1,532.579 km
Perigee altitude1,231.929 km
Semi-major axis7,760.391 km
Eccentricity0.0193708
Inclination101.4956°
RAAN338.1637°
Arg. of periapsis52.1686°
True anomaly307.94049°
Mean anomaly309.6755°
Eccentric anomaly308.81067°
Mean motion3.17481 °/min
BSTAR0.0027282
Orbital period113.39 mins
Loading maneuver chart data...

THORAD DELTA 1 DEB Visibility forecast

Observer location: undefined°, undefined

Span
Click to sort rows by Start time (UTC) header in descending order
Start Az.
Max El. time (UTC)
Max El. Az.
Max El.
End time (UTC)
End Az.
7 mins2024-12-26 20:32:55.328Z78.534° E2024-12-26 20:35:55.328Z51.605° ENE15.506°2024-12-26 20:39:55.328Z17.301° NNE
12 mins2024-12-26 22:20:55.328Z155.998° SSE2024-12-26 22:25:55.328Z117.516° SE44.425°2024-12-26 22:32:55.328Z345.056° N
6 mins2024-12-27 00:15:55.328Z243.206° WSW2024-12-27 00:18:55.328Z271.151° WNW15.906°2024-12-27 00:21:55.328Z298.026° NW
10 mins2024-12-27 10:13:55.328Z53.065° ENE2024-12-27 10:18:55.328Z99.206° ESE21.657°2024-12-27 10:23:55.328Z140.649° SSE
14 mins2024-12-27 12:03:55.328Z11.234° NNE2024-12-27 12:10:55.328Z267.004° W43.072°2024-12-27 12:17:55.328Z210.155° SW
6 mins2024-12-27 13:57:55.328Z332.334° NNW2024-12-27 14:00:55.328Z307.271° NW14.573°2024-12-27 14:03:55.328Z283.514° WNW
|